When you browse on this site, cookies collect data to enhance your experience and personalize the content and advertising you see.
Visit our Privacy Policy to learn more. By continuing to use the site, you agree to this use of cookies and data.
  • In Hungary
  • List of Countries
  • For 7 days
  • Water Temperature
  • Weather Map
  • News
  • Weather Widgets
  • user-avatar
    Login

    Hourly Weather Mostow

    Today, 18 September, Wednesday

    Time Temperature Precipitation Wind Pressure Humidity
    00:00 +5°C° 0.1 mm 6 mps 739 mmHg 82%
    01:00 +5°C° 0.1 mm 7 mps 739 mmHg 82%
    02:00 +5°C° 0 mm 8 mps 739 mmHg 85%
    03:00 +5°C° 0 mm 8 mps 739 mmHg 84%
    04:00 +4°C° 0 mm 8 mps 739 mmHg 84%
    05:00 +4°C° 0 mm 8 mps 739 mmHg 84%
    06:00 +5°C° 0.1 mm 9 mps 739 mmHg 84%
    07:00 +5°C° 0.1 mm 9 mps 740 mmHg 84%
    08:00 +6°C° 0.1 mm 9 mps 740 mmHg 84%
    09:00 +6°C° 0.7 mm 9 mps 741 mmHg 81%
    10:00 +7°C° 0.7 mm 9 mps 741 mmHg 79%
    11:00 +8°C° 0.7 mm 10 mps 742 mmHg 76%
    12:00 +9°C° 0.2 mm 10 mps 743 mmHg 70%
    13:00 +11°C° 0.2 mm 10 mps 743 mmHg 64%
    14:00 +12°C° 0.2 mm 9 mps 744 mmHg 58%
    15:00 +12°C° 0.3 mm 9 mps 744 mmHg 60%
    16:00 +12°C° 0.3 mm 8 mps 745 mmHg 61%
    17:00 +11°C° 0.3 mm 7 mps 745 mmHg 62%
    18:00 +10°C° 0 mm 6 mps 746 mmHg 67%
    19:00 +9°C° 0 mm 5 mps 746 mmHg 72%
    20:00 +8°C° 0 mm 5 mps 746 mmHg 78%
    21:00 +7°C° 0 mm 5 mps 747 mmHg 81%
    22:00 +7°C° 0 mm 4 mps 747 mmHg 84%
    23:00 +6°C° 0 mm 4 mps 747 mmHg 87%

    Tomorrow, 19 September, Thursday

    Time Temperature Precipitation Wind Pressure Humidity
    00:00 +6°C° 0 mm 4 mps 748 mmHg 88%
    01:00 +6°C° 0 mm 4 mps 748 mmHg 89%
    02:00 +5°C° 0 mm 4 mps 748 mmHg 91%
    03:00 +5°C° 0 mm 4 mps 748 mmHg 91%
    04:00 +5°C° 0 mm 5 mps 749 mmHg 91%
    05:00 +5°C° 0 mm 5 mps 749 mmHg 91%
    06:00 +6°C° 0 mm 5 mps 749 mmHg 90%
    07:00 +6°C° 0 mm 5 mps 749 mmHg 89%
    08:00 +7°C° 0 mm 5 mps 750 mmHg 88%
    09:00 +8°C° 0.1 mm 5 mps 750 mmHg 80%
    10:00 +10°C° 0.1 mm 6 mps 750 mmHg 72%
    11:00 +11°C° 0.1 mm 6 mps 751 mmHg 64%
    12:00 +13°C° 0.1 mm 6 mps 751 mmHg 60%
    13:00 +14°C° 0.1 mm 6 mps 750 mmHg 56%
    14:00 +14°C° 0.1 mm 6 mps 750 mmHg 52%
    15:00 +14°C° 0.2 mm 6 mps 750 mmHg 54%
    16:00 +13°C° 0.2 mm 5 mps 750 mmHg 57%
    17:00 +13°C° 0.2 mm 5 mps 751 mmHg 59%
    18:00 +12°C° 0.2 mm 4 mps 751 mmHg 64%
    19:00 +11°C° 0.2 mm 4 mps 751 mmHg 70%
    20:00 +9°C° 0.2 mm 3 mps 751 mmHg 75%
    21:00 +7°C° 0 mm 4 mps 751 mmHg 79%
    22:00 +7°C° 0 mm 4 mps 751 mmHg 83%
    23:00 +6°C° 0 mm 4 mps 752 mmHg 88%

    Day after tomorrow, 20 September, Friday

    Time Temperature Precipitation Wind Pressure Humidity
    00:00 +5°C° 0 mm 4 mps 752 mmHg 89%
    01:00 +5°C° 0 mm 4 mps 752 mmHg 91%
    02:00 +5°C° 0 mm 4 mps 752 mmHg 93%
    03:00 +4°C° 0 mm 4 mps 752 mmHg 92%
    04:00 +4°C° 0 mm 4 mps 752 mmHg 92%
    05:00 +4°C° 0 mm 4 mps 752 mmHg 92%
    06:00 +4°C° 0 mm 4 mps 752 mmHg 88%
    07:00 +5°C° 0 mm 4 mps 753 mmHg 84%
    08:00 +6°C° 0 mm 4 mps 753 mmHg 81%
    09:00 +7°C° 0 mm 4 mps 753 mmHg 73%
    10:00 +10°C° 0 mm 4 mps 753 mmHg 64%
    11:00 +12°C° 0 mm 4 mps 754 mmHg 56%
    12:00 +12°C° 0 mm 5 mps 753 mmHg 53%
    13:00 +13°C° 0 mm 5 mps 753 mmHg 49%
    14:00 +13°C° 0 mm 5 mps 753 mmHg 46%
    15:00 +13°C° 0.1 mm 5 mps 753 mmHg 47%
    16:00 +13°C° 0.1 mm 4 mps 753 mmHg 49%
    17:00 +13°C° 0.1 mm 4 mps 753 mmHg 51%
    18:00 +11°C° 0 mm 3 mps 753 mmHg 55%
    19:00 +10°C° 0 mm 3 mps 753 mmHg 60%
    20:00 +9°C° 0 mm 2 mps 753 mmHg 64%
    21:00 +8°C° 0 mm 2 mps 754 mmHg 67%
    22:00 +8°C° 0 mm 2 mps 754 mmHg 69%
    23:00 +8°C° 0 mm 1 mps 754 mmHg 72%

    21 September, Saturday

    Time Temperature Precipitation Wind Pressure Humidity
    00:00 +7°C° 0 mm 2 mps 754 mmHg 72%
    01:00 +7°C° 0 mm 2 mps 754 mmHg 73%
    02:00 +7°C° 0 mm 2 mps 754 mmHg 73%
    03:00 +7°C° 0 mm 2 mps 754 mmHg 76%
    04:00 +5°C° 0 mm 3 mps 754 mmHg 80%
    05:00 +5°C° 0 mm 3 mps 754 mmHg 83%
    06:00 +7°C° 0 mm 3 mps 754 mmHg 81%
    07:00 +7°C° 0 mm 4 mps 753 mmHg 79%
    08:00 +8°C° 0 mm 4 mps 753 mmHg 77%
    09:00 +10°C° 0 mm 5 mps 754 mmHg 71%
    10:00 +13°C° 0 mm 5 mps 754 mmHg 65%
    11:00 +15°C° 0 mm 5 mps 754 mmHg 59%
    12:00 +15°C° 0 mm 5 mps 753 mmHg 57%
    13:00 +16°C° 0 mm 5 mps 753 mmHg 56%
    14:00 +17°C° 0 mm 5 mps 753 mmHg 55%
    15:00 +17°C° 0 mm 5 mps 752 mmHg 55%
    16:00 +17°C° 0 mm 5 mps 752 mmHg 56%
    17:00 +17°C° 0 mm 4 mps 752 mmHg 57%
    18:00 +15°C° 0 mm 4 mps 752 mmHg 62%
    19:00 +13°C° 0 mm 3 mps 752 mmHg 67%
    20:00 +12°C° 0 mm 3 mps 752 mmHg 72%
    21:00 +11°C° 0 mm 3 mps 752 mmHg 73%
    22:00 +11°C° 0 mm 3 mps 752 mmHg 74%
    23:00 +10°C° 0 mm 3 mps 751 mmHg 74%

    22 September, Sunday

    Time Temperature Precipitation Wind Pressure Humidity
    00:00 +10°C° 0 mm 3 mps 751 mmHg 74%
    01:00 +10°C° 0 mm 3 mps 751 mmHg 75%
    02:00 +9°C° 0 mm 3 mps 751 mmHg 75%
    03:00 +9°C° 0 mm 3 mps 751 mmHg 75%
    04:00 +9°C° 0 mm 2 mps 751 mmHg 76%
    05:00 +8°C° 0 mm 2 mps 751 mmHg 76%
    06:00 +9°C° 0 mm 2 mps 750 mmHg 73%
    07:00 +10°C° 0 mm 2 mps 750 mmHg 69%
    08:00 +12°C° 0 mm 2 mps 750 mmHg 66%
    09:00 +14°C° 0 mm 1 mps 750 mmHg 59%
    10:00 +16°C° 0 mm 1 mps 750 mmHg 52%
    11:00 +19°C° 0 mm 1 mps 750 mmHg 45%
    12:00 +20°C° 0 mm 1 mps 750 mmHg 43%
    13:00 +21°C° 0 mm 1 mps 749 mmHg 40%
    14:00 +22°C° 0 mm 1 mps 749 mmHg 38%
    15:00 +21°C° 0 mm 1 mps 748 mmHg 40%
    16:00 +21°C° 0 mm 1 mps 748 mmHg 42%
    17:00 +21°C° 0 mm 1 mps 748 mmHg 45%
    18:00 +18°C° 0 mm 2 mps 747 mmHg 49%
    19:00 +16°C° 0 mm 2 mps 747 mmHg 52%
    20:00 +14°C° 0 mm 2 mps 747 mmHg 56%
    21:00 +14°C° 0 mm 2 mps 747 mmHg 58%
    22:00 +14°C° 0 mm 2 mps 747 mmHg 59%
    23:00 +13°C° 0 mm 2 mps 747 mmHg 60%

    23 September, Monday

    Time Temperature Precipitation Wind Pressure Humidity
    00:00 +12°C° 0 mm 3 mps 747 mmHg 62%
    01:00 +11°C° 0 mm 3 mps 746 mmHg 63%
    02:00 +11°C° 0 mm 3 mps 746 mmHg 65%
    03:00 +10°C° 0 mm 3 mps 746 mmHg 67%
    04:00 +10°C° 0 mm 2 mps 745 mmHg 68%
    05:00 +9°C° 0 mm 2 mps 745 mmHg 70%
    06:00 +10°C° 0 mm 2 mps 745 mmHg 69%
    07:00 +10°C° 0 mm 2 mps 745 mmHg 67%
    08:00 +12°C° 0 mm 2 mps 745 mmHg 65%
    09:00 +14°C° 0 mm 2 mps 745 mmHg 59%
    10:00 +16°C° 0 mm 2 mps 745 mmHg 53%
    11:00 +18°C° 0 mm 2 mps 745 mmHg 47%
    12:00 +20°C° 0 mm 1 mps 744 mmHg 44%
    13:00 +21°C° 0 mm 1 mps 744 mmHg 42%
    14:00 +22°C° 0 mm 1 mps 744 mmHg 39%
    15:00 +22°C° 0 mm 1 mps 743 mmHg 42%
    16:00 +22°C° 0 mm 1 mps 743 mmHg 44%
    17:00 +21°C° 0 mm 1 mps 743 mmHg 47%
    18:00 +18°C° 0 mm 2 mps 743 mmHg 55%
    19:00 +16°C° 0 mm 2 mps 743 mmHg 63%
    20:00 +13°C° 0 mm 3 mps 744 mmHg 71%
    21:00 +12°C° 0 mm 3 mps 744 mmHg 76%
    22:00 +11°C° 0 mm 3 mps 744 mmHg 82%
    23:00 +11°C° 0 mm 3 mps 744 mmHg 87%
    Show more